Terminal Aerodrome Forecast
Issued by NWS

Home | Current Version | Previous Version | Text Only | Print | Product List | Glossary On
Versions: 1 2 3 4 5 6 7 8 9 10 11 12 13 14
000
FTUS43 KICT 170124 AAA
TAFCNU
TAF AMD
KCNU 170124Z 1701/1724 15007KT P6SM OVC250
     FM170700 18010KT P6SM VCSH OVC025
     FM170900 18007KT 4SM -RA SCT008 OVC015
     FM171000 18007KT P6SM VCSH OVC008
     FM171600 19005KT P6SM VCSH OVC012
     FM171800 22005KT P6SM OVC015=

USA.gov is the U.S. government's official web portal to all federal, state and local government web resources and services.